Regional Weather Roundup
Issued by NWS

Home | Current Version | Previous Version | Text Only | Print | Product List | Glossary Off
Versions: 1 2 3 4 5 6 7 8 9 10 11 12 13 14 15 16 17 18 19 20 21 22 23 24 25 26 27 28 29 30 31 32 33 34 35 36 37 38 39 40 41 42 43 44 45 46 47 48 49 50

000
ASUS45 KABQ 202310
RWRNM
WEATHER ROUNDUP FOR NEW MEXICO
NATIONAL WEATHER SERVICE ALBUQUERQUE NM
500 PM MDT MON OCT 20 2014

NOTE: "FAIR" MEANS FEW OR NO CLOUDS BELOW 12,000 FEET AGL WITH NO
       SIGNIFICANT WEATHER OR OBSTRUCTIONS TO VISION.

      THIS PRODUCT IS RELEASED AS TWO VERSIONS.  ONE VERSION NEAR
      THE TOP OF THE HOUR CONTAINING PRELIMINARY DATA FROM ALBUQUERQUE
      AND OTHER STATIONS.  A FINAL VERSION WITH ADDITIONAL DATA IS
      ISSUED ABOUT 10 MINUTES AFTER THE HOUR.

NMZ501-503-504-510>518-210000-
NORTHWEST PLATEAU/NORTHCENTRAL MOUNTAINS

CITY           SKY/WX    TMP DP  RH WIND       PRES   REMARKS
FARMINGTON     CLOUDY    63  44  50 E12       30.12R
LOS ALAMOS     PTSUNNY   61  37  39 S7        30.21S
SANTA FE       MOSUNNY   66  38  35 SW9       30.16R
TAOS           CLOUDY    63  36  36 N16       30.20S
ANGEL FIRE     FAIR      60  28  29 E10       30.29S

$$
NMZ402-403-502-505>509-210000-
WESTCENTRAL MOUNTAINS/SOUTHWEST MOUNTAINS

CITY           SKY/WX    TMP DP  RH WIND       PRES   REMARKS
GALLUP         SUNNY     65  41  41 CALM      30.14F
GRANTS         MOSUNNY   66  37  34 SE12      30.17S
SILVER CITY    MOSUNNY   66  48  52 S10       30.10F

$$
NMZ407-409-411-412-210000-
SOUTHERN DESERTS

CITY           SKY/WX    TMP DP  RH WIND       PRES   REMARKS
LORDSBURG      FAIR      70  48  46 MISG      30.00F
DEMING         MOSUNNY   69  50  50 SE6       30.03F
LAS CRUCES     PTSUNNY   65  56  72 S7        30.06R
HOLLOMAN AFB   CLOUDY    62  57  83 S2        30.05S
T OR C         MOSUNNY   70  46  42 CALM      30.06F

$$
NMZ519>523-210000-
CENTRAL VALLEYS/CENTRAL HIGHLANDS

CITY           SKY/WX    TMP DP  RH WIND       PRES   REMARKS
ALBUQUERQUE    PTSUNNY   60  48  64 NW5       30.15F THUNDER
DOUBLE EAGLE   PTSUNNY   55  46  71 E22       30.15S
MORIARTY ARPT  CLOUDY    60  47  61 W6        30.17S
CLINES CORNERS MOSUNNY   65  40  39 E16G22    30.18F
BELEN          MOCLDY    60  48  62 SE12      30.14S
SOCORRO        PTSUNNY   61  53  74 N10       30.11S

$$
NMZ524>526-539-540-210000-
SOUTHCENTRAL MOUNTAINS

CITY           SKY/WX    TMP DP  RH WIND       PRES   REMARKS
RUIDOSO        NOT AVBL

$$
NMZ527>531-210000-
NORTHEAST HIGHLANDS/NORTHEAST PLAINS

CITY           SKY/WX    TMP DP  RH WIND       PRES   REMARKS
LAS VEGAS      RAIN      58  40  51 E16       30.21S
RATON          SUNNY     69  30  23 S12       30.16F
CLAYTON        SUNNY     70  44  39 E9        30.14F

$$
NMZ532>537-210000-
EASTCENTRAL PLAINS

CITY           SKY/WX    TMP DP  RH WIND       PRES   REMARKS
TUCUMCARI      MOSUNNY   71  50  47 S14G21    30.07R
CANNON AFB     PTSUNNY   70  52  51 E8        30.10S
CLOVIS AIRPORT PTSUNNY   70  48  46 SE8       30.12R

$$
NMZ028-029-538-210000-
SOUTHEAST PLAINS

CITY           SKY/WX    TMP DP  RH WIND       PRES   REMARKS
ROSWELL        PTSUNNY   71  57  61 S9        30.07R
CARLSBAD       HVY RAIN  62  58  86 SE23G32   30.06R VSB 3/4
HOBBS          MOSUNNY   72  52  49 SE15      30.07S


$$



USA.gov is the U.S. government's official web portal to all federal, state and local government web resources and services.